• In Deutschland
  • Länderverzeichnis
  • Für 7 Tage
  • Wassertemperatur
  • Satellitenkarten
  • Wetterkarte
  • Widgets
  • user-avatar
    Anmelden

    Stündliche Wetter Mykhal'cha

    Heute, 16 November, Freitag

    Zeit Temperatur Niederschläge Wind Luftdruck Luftfeuchtigkeit
    00:00 +2°C° 0 mm 3 m/S 747 mmHg 100%
    01:00 +1°C° 0.1 mm 3 m/S 748 mmHg 100%
    02:00 +2°C° 0 mm 3 m/S 749 mmHg 87%
    03:00 +3°C° 0 mm 2 m/S 749 mmHg 95%
    04:00 +3°C° 0 mm 2 m/S 749 mmHg 95%
    05:00 +2°C° 0 mm 2 m/S 749 mmHg 97%
    06:00 +3°C° 0 mm 1 m/S 749 mmHg 99%
    07:00 +1°C° 0 mm 2 m/S 749 mmHg 100%
    08:00 +1°C° 0 mm 2 m/S 749 mmHg 100%
    09:00 0°C° 0 mm 3 m/S 750 mmHg 98%
    10:00 +1°C° 0 mm 3 m/S 750 mmHg 94%
    11:00 +1°C° 0 mm 3 m/S 750 mmHg 90%
    12:00 +2°C° 0 mm 3 m/S 750 mmHg 85%
    13:00 +2°C° 0 mm 3 m/S 750 mmHg 84%
    14:00 +1°C° 0 mm 4 m/S 750 mmHg 84%
    15:00 +1°C° 0 mm 4 m/S 750 mmHg 84%
    16:00 +1°C° 0 mm 4 m/S 750 mmHg 87%
    17:00 0°C° 0 mm 4 m/S 750 mmHg 91%
    18:00 -1°C° 0 mm 4 m/S 750 mmHg 94%
    19:00 -1°C° 0 mm 3 m/S 750 mmHg 95%
    20:00 -1°C° 0 mm 3 m/S 750 mmHg 97%
    21:00 -1°C° 0 mm 3 m/S 750 mmHg 99%
    22:00 -1°C° 1.1 mm 3 m/S 750 mmHg 100%
    23:00 -1°C° 0.7 mm 3 m/S 750 mmHg 100%

    Morgen, 17 November, Samstag

    Zeit Temperatur Niederschläge Wind Luftdruck Luftfeuchtigkeit
    00:00 -2°C° 0.3 mm 3 m/S 750 mmHg 100%
    01:00 -2°C° 0.3 mm 2 m/S 750 mmHg 100%
    02:00 -2°C° 0.3 mm 2 m/S 751 mmHg 100%
    03:00 -2°C° 0.3 mm 2 m/S 751 mmHg 100%
    04:00 -2°C° 0.2 mm 2 m/S 750 mmHg 100%
    05:00 -2°C° 0.2 mm 2 m/S 750 mmHg 100%
    06:00 -2°C° 0.2 mm 2 m/S 750 mmHg 100%
    07:00 -2°C° 0.1 mm 3 m/S 751 mmHg 100%
    08:00 -2°C° 0.1 mm 2 m/S 751 mmHg 100%
    09:00 -2°C° 0.2 mm 2 m/S 751 mmHg 100%
    10:00 -2°C° 0.1 mm 2 m/S 751 mmHg 100%
    11:00 -1°C° 0.1 mm 2 m/S 751 mmHg 99%
    12:00 +1°C° 0.1 mm 1 m/S 751 mmHg 98%
    13:00 +1°C° 0.1 mm 1 m/S 751 mmHg 95%
    14:00 +2°C° 0.2 mm 1 m/S 751 mmHg 98%
    15:00 +2°C° 0.1 mm 1 m/S 750 mmHg 95%
    16:00 +2°C° 0 mm 1 m/S 750 mmHg 95%
    17:00 +2°C° 0.1 mm 1 m/S 750 mmHg 98%
    18:00 +1°C° 0.1 mm 1 m/S 750 mmHg 100%
    19:00 +1°C° 0.2 mm 1 m/S 750 mmHg 100%
    20:00 +1°C° 0.1 mm 1 m/S 750 mmHg 100%
    21:00 -1°C° 0.1 mm 2 m/S 750 mmHg 100%
    22:00 +1°C° 0 mm 1 m/S 750 mmHg 100%
    23:00 +1°C° 0 mm 1 m/S 749 mmHg 100%

    übermorgen, 18 November, Sonntag

    Zeit Temperatur Niederschläge Wind Luftdruck Luftfeuchtigkeit
    00:00 -2°C° 0 mm 2 m/S 749 mmHg 100%
    01:00 -2°C° 0 mm 2 m/S 748 mmHg 100%
    02:00 -2°C° 0 mm 2 m/S 748 mmHg 100%
    03:00 -2°C° 0 mm 2 m/S 748 mmHg 100%
    04:00 -2°C° 0 mm 2 m/S 747 mmHg 100%
    05:00 -2°C° 0 mm 2 m/S 747 mmHg 100%
    06:00 -2°C° 0 mm 3 m/S 746 mmHg 100%
    07:00 -2°C° 0 mm 2 m/S 746 mmHg 100%
    08:00 -2°C° 0 mm 2 m/S 745 mmHg 100%
    09:00 -2°C° 0 mm 3 m/S 745 mmHg 100%
    10:00 -2°C° 0 mm 3 m/S 745 mmHg 98%
    11:00 -1°C° 0 mm 3 m/S 744 mmHg 97%
    12:00 -1°C° 0 mm 3 m/S 744 mmHg 97%
    13:00 0°C° 0 mm 3 m/S 743 mmHg 97%
    14:00 0°C° 0 mm 3 m/S 743 mmHg 97%
    15:00 0°C° 0 mm 3 m/S 742 mmHg 97%
    16:00 -1°C° 0 mm 2 m/S 741 mmHg 97%
    17:00 -1°C° 0 mm 2 m/S 741 mmHg 100%
    18:00 -1°C° 0 mm 3 m/S 741 mmHg 98%
    19:00 -1°C° 0 mm 3 m/S 740 mmHg 100%
    20:00 -1°C° 0 mm 2 m/S 740 mmHg 100%
    21:00 -2°C° 0 mm 2 m/S 740 mmHg 100%
    22:00 -2°C° 0 mm 2 m/S 739 mmHg 100%
    23:00 -2°C° 0 mm 2 m/S 739 mmHg 100%

    19 November, Montag

    Zeit Temperatur Niederschläge Wind Luftdruck Luftfeuchtigkeit
    00:00 -2°C° 0 mm 2 m/S 739 mmHg 100%
    01:00 0°C° 0 mm 1 m/S 739 mmHg 100%
    02:00 0°C° 0 mm 1 m/S 739 mmHg 100%
    03:00 -1°C° 0 mm 0 m/S 738 mmHg 100%
    04:00 -1°C° 0 mm 0 m/S 738 mmHg 100%
    05:00 -1°C° 0 mm 0 m/S 738 mmHg 100%
    06:00 0°C° 0 mm 1 m/S 737 mmHg 100%
    07:00 0°C° 0 mm 1 m/S 737 mmHg 100%
    08:00 -1°C° 0 mm 1 m/S 737 mmHg 100%
    09:00 -2°C° 0 mm 2 m/S 737 mmHg 100%
    10:00 -1°C° 0 mm 2 m/S 738 mmHg 97%
    11:00 -1°C° 0 mm 3 m/S 737 mmHg 95%
    12:00 0°C° 0 mm 3 m/S 737 mmHg 94%
    13:00 0°C° 0 mm 3 m/S 737 mmHg 94%
    14:00 -1°C° 0 mm 4 m/S 737 mmHg 96%
    15:00 -1°C° 0 mm 4 m/S 737 mmHg 95%
    16:00 -1°C° 0 mm 4 m/S 737 mmHg 98%
    17:00 -1°C° 0 mm 4 m/S 737 mmHg 98%
    18:00 -2°C° 0 mm 4 m/S 737 mmHg 100%
    19:00 -2°C° 0.2 mm 5 m/S 737 mmHg 100%
    20:00 -2°C° 0.7 mm 5 m/S 737 mmHg 100%
    21:00 -4°C° 0.9 mm 5 m/S 737 mmHg 100%
    22:00 -3°C° 0.7 mm 4 m/S 737 mmHg 100%
    23:00 -3°C° 0.4 mm 4 m/S 737 mmHg 100%

    20 November, Dienstag

    Zeit Temperatur Niederschläge Wind Luftdruck Luftfeuchtigkeit
    00:00 -3°C° 0.3 mm 4 m/S 737 mmHg 100%
    01:00 -3°C° 0.4 mm 4 m/S 737 mmHg 100%
    02:00 -3°C° 0.4 mm 4 m/S 737 mmHg 100%

    21 November, Mittwoch

    Zeit Temperatur Niederschläge Wind Luftdruck Luftfeuchtigkeit
    Mehr zeigen